Wind_Speed
2 2 3 3 4 4 5 5 6 7 7 8 8 9 10 10 11 11 12 12 12 12 12 12 11 11 11 10 10 9 8 8 8 8 7 6 6 6 7 7 8 8 8
0 1 2 2 3 3 4 4 5 5 6 7 7 8 9 10 10 10 11 11 12 12 11 11 11 11 10 10 9 9 8 7 6 6 6 5 5 5 5 5 5 6 6
1 2 2 3 3 4 4 4 4 5 5 6 7 7 8 8 9 10 10 11 11 11 11 10 10 10 10 10 9 8 8 7 6 5 4 5 4 4 3 3 3 3 4
3 3 3 4 4 4 5 5 5 5 5 6 6 7 7 8 9 9 9 10 10 10 10 10 10 10 10 9 9 8 8 7 6 5 4 3 3 3 3 2 1 1 2
4 4 4 4 5 5 6 6 6 6 6 6 7 7 8 8 9 9 10 10 10 10 10 10 10 10 10 9 9 8 7 7 6 6 4 3 2 1 1 1 1 1 1
5 4 5 5 5 6 6 7 7 7 7 7 8 8 9 9 9 10 10 10 10 10 10 10 10 10 10 10 9 8 7 6 6 6 5 4 3 1 1 1 1 1 0
6 6 6 6 7 7 7 8 8 9 9 9 10 10 11 11 11 11 11 11 11 11 11 11 11 11 11 11 10 9 8 7 6 6 6 5 4 3 3 3 3 2 2
7 7 8 8 9 9 10 10 10 11 11 12 12 13 13 13 13 13 13 13 13 13 14 14 14 13 13 13 12 11 10 9 8 7 7 7 6 6 5 5 5 4 4
9 10 11 11 11 11 12 12 13 13 14 14 15 15 15 16 16 16 16 16 16 16 16 16 16 16 16 16 15 14 13 12 11 10 10 9 9 8 8 7 7 6 6
11 12 13 13 13 13 13 14 14 15 15 16 17 17 17 18 18 18 18 18 18 18 19 19 19 19 19 19 18 17 16 15 14 14 13 12 11 11 10 10 9 9 8
14 15 15 16 15 15 15 15 15 16 16 17 18 18 19 20 20 20 21 21 21 21 21 21 21 22 22 22 21 21 21 20 18 18 17 16 14 13 13 12 12 11 11
19 19 19 18 18 17 17 17 17 17 18 19 19 20 21 21 22 22 22 22 22 22 22 22 22 23 23 24 23 22 23 22 22 21 20 20 18 17 16 15 15 14 14
23 24 24 22 21 20 20 20 20 20 20 20 21 21 22 22 22 23 23 23 23 23 23 23 23 23 23 23 23 22 22 23 23 24 24 23 22 21 19 18 18 17 17
26 26 26 25 24 23 23 23 23 23 22 22 22 23 24 24 24 23 23 23 23 24 24 24 24 23 22 23 22 22 23 23 24 25 25 25 26 26 24 23 21 20 20
27 27 28 29 28 27 26 26 25 24 24 23 23 24 24 25 25 25 24 24 23 23 24 24 24 23 22 21 21 21 21 22 23 23 24 25 27 28 27 27 26 24 23
31 30 31 33 33 30 29 28 26 26 25 24 25 26 25 24 25 25 25 24 23 23 22 22 22 21 20 20 20 20 20 21 22 22 23 23 24 26 26 27 28 28 27
35 35 35 36 36 34 32 30 29 28 27 27 28 27 25 24 25 25 25 24 23 22 21 21 20 19 17 17 17 17 17 18 19 20 20 21 23 24 25 27 28 29 29
41 42 40 38 37 35 34 33 31 30 29 28 28 26 25 25 25 24 24 24 23 22 21 20 19 18 17 16 15 15 15 16 16 17 18 20 21 22 24 25 27 29 29
41 42 41 41 37 35 34 31 30 30 28 27 27 26 26 25 24 23 24 23 22 21 20 20 19 18 17 16 15 14 14 15 15 16 17 19 20 21 23 26 26 28 29
40 39 39 37 35 32 32 30 28 28 29 28 27 26 24 25 25 24 24 23 22 21 21 21 20 19 18 17 16 16 16 15 16 16 17 19 20 21 23 25 27 27 30
39 38 36 33 30 30 29 29 28 27 27 27 26 25 24 24 24 24 24 23 23 22 21 21 21 20 19 18 18 17 17 16 16 17 18 19 20 21 23 25 26 26 29
35 34 33 31 30 28 29 28 29 28 27 27 27 26 25 25 25 25 24 24 24 23 22 22 21 21 21 20 19 18 18 19 18 19 19 19 20 22 23 24 26 27 29
34 33 32 32 30 29 28 30 30 28 27 27 26 26 25 26 26 25 25 25 25 24 24 23 23 22 22 22 21 20 20 20 21 22 21 21 21 22 23 24 26 27 29
32 32 32 31 31 30 30 29 27 27 27 26 26 26 26 26 27 27 26 27 27 26 26 25 25 24 24 24 24 23 23 22 22 23 24 24 23 23 24 24 25 27 28
32 33 33 33 34 34 33 32 32 31 30 30 30 30 30 29 29 29 29 29 29 29 29 29 28 27 27 27 27 26 26 25 24 23 24 26 25 24 24 24 25 26 27
34 36 36 37 38 38 38 38 37 37 36 35 35 35 34 34 34 33 32 31 31 32 32 32 31 30 30 30 30 29 29 28 28 26 25 26 27 27 25 24 24 24 26
Wind_Direction
86 68 54 43 42 43 42 37 30 22 14 10 7 7 7 8 10 11 12 13 15 18 21 25 28 32 36 39 43 48 53 56 59 63 67 73 78 82 85 90 94 96 98
87 19 19 8 359 358 4 10 10 8 1 356 356 357 358 358 358 359 359 0 3 6 10 14 17 20 24 28 32 36 41 48 55 62 67 72 77 80 81 86 93 94 92
257 295 317 323 325 326 331 336 343 347 346 344 345 346 347 347 346 346 345 346 349 353 357 1 5 8 11 14 18 23 27 31 37 46 57 66 70 76 80 81 91 97 96
253 271 292 301 306 309 313 316 318 324 327 328 331 333 333 333 333 333 332 333 335 339 342 346 350 354 357 1 5 9 12 13 14 20 31 45 62 68 71 72 81 101 107
256 271 287 293 296 298 300 302 304 307 309 311 315 318 320 320 320 321 320 320 321 323 326 329 333 337 341 345 350 355 -0 360 354 352 3 15 24 50 62 61 75 112 131
272 279 285 287 289 289 292 293 295 297 298 300 303 307 309 309 309 308 308 307 307 308 310 312 316 319 322 326 331 336 342 347 341 330 328 337 338 317 270 255 248 222 194
290 293 292 290 287 284 282 282 283 285 287 290 293 296 299 300 299 298 297 296 295 296 297 297 299 302 305 309 313 317 321 324 323 311 303 301 302 294 270 254 249 248 244
296 298 296 294 290 286 282 280 279 278 280 282 284 286 289 291 290 290 290 287 286 285 286 287 287 289 291 294 297 301 304 306 308 300 291 285 278 273 268 261 253 250 250
298 299 298 296 294 290 286 282 280 279 279 279 279 280 282 283 283 283 283 282 281 280 279 279 280 281 282 283 285 287 289 291 294 292 287 283 275 267 262 260 257 253 249
298 299 297 296 295 292 289 286 283 280 280 280 280 280 280 280 280 279 280 280 279 279 279 278 278 277 277 277 277 279 280 282 283 283 282 279 273 267 261 258 256 254 253
295 298 297 296 294 292 290 289 287 285 284 284 284 283 282 280 279 279 280 280 280 280 279 279 278 277 277 276 275 275 275 276 275 274 275 274 269 264 259 256 255 254 254
295 297 295 294 293 292 291 291 291 289 289 289 288 286 284 283 282 281 281 281 280 279 279 279 278 277 277 276 276 276 274 275 274 270 269 270 266 261 257 255 254 253 251
294 295 292 290 290 291 292 292 293 292 293 292 291 289 287 285 284 284 283 283 283 282 281 280 279 277 276 278 276 275 273 273 273 269 267 267 263 258 255 253 254 253 252
291 291 289 287 288 289 291 292 294 293 294 294 293 291 289 287 285 284 283 282 280 280 281 282 280 278 276 278 278 277 272 270 270 269 268 266 261 257 254 252 252 250 250
288 288 285 285 285 285 287 290 291 291 290 290 290 289 286 286 285 283 281 279 278 277 278 279 279 278 276 277 279 278 276 274 272 275 273 269 264 258 254 252 252 250 249
284 282 283 284 281 280 281 282 282 283 282 284 286 284 280 280 281 280 279 278 278 277 276 276 275 273 273 274 275 276 278 277 277 276 277 274 267 262 257 253 250 250 250
283 281 279 277 275 275 274 274 272 274 276 278 279 279 280 279 277 277 278 277 277 276 274 272 270 266 266 269 271 274 276 277 278 276 274 271 272 265 260 257 256 252 249
282 282 277 274 272 269 271 271 266 268 273 277 278 279 281 279 279 278 278 278 277 276 273 271 268 266 267 268 270 273 278 282 283 283 279 274 273 268 265 263 260 253 250
284 283 277 275 273 269 268 264 262 265 274 281 276 279 280 279 278 279 278 278 276 273 272 270 269 268 267 267 270 275 280 286 289 289 289 283 279 273 269 265 262 258 252
290 284 280 276 277 275 272 264 264 266 273 280 281 280 281 282 280 278 277 275 273 271 269 268 267 267 265 265 268 273 278 283 290 292 293 291 286 280 275 270 267 262 253
291 288 285 287 286 284 283 277 275 277 283 285 286 288 286 282 278 276 273 270 269 268 267 266 266 265 263 262 266 270 275 280 287 291 293 293 291 287 281 275 270 264 257
294 290 294 297 296 292 293 293 290 286 287 288 289 287 286 283 278 273 269 266 265 264 264 264 265 265 264 263 265 268 274 279 285 289 293 295 294 290 285 279 272 266 261
298 300 301 301 301 300 297 296 295 288 286 285 285 283 281 280 276 271 268 265 262 261 261 262 263 263 265 265 265 268 272 277 284 288 291 294 296 294 289 283 276 269 263
297 300 302 301 300 301 300 300 296 288 286 284 284 280 277 275 273 270 268 266 263 261 261 261 261 263 265 267 267 268 271 274 278 286 291 293 294 295 293 286 278 271 265
297 298 300 300 300 300 298 294 294 292 289 285 281 279 277 274 271 269 266 265 263 261 261 261 261 262 264 267 269 271 273 275 277 281 287 291 294 295 294 289 281 272 266
297 298 299 298 297 295 293 291 289 287 285 282 279 277 275 272 270 267 265 263 262 262 262 262 263 264 265 267 269 271 274 277 279 281 284 288 292 294 295 291 283 274 268
Height
5925 5924 5923 5922 5921 5921 5920 5919 5919 5918 5918 5917 5916 5915 5914 5912 5911 5909 5908 5906 5905 5903 5901 5900 5898 5897 5896 5895 5894 5894 5893 5892 5891 5891 5890 5890 5890 5890 5890 5890 5890 5890 5890
5925 5924 5923 5922 5922 5921 5920 5920 5919 5919 5918 5917 5916 5915 5914 5913 5911 5910 5908 5907 5905 5904 5902 5901 5899 5898 5897 5896 5895 5894 5893 5892 5892 5891 5891 5890 5890 5890 5890 5890 5890 5890 5890
5924 5924 5923 5922 5922 5921 5920 5920 5919 5918 5918 5917 5916 5915 5914 5912 5911 5910 5908 5907 5905 5904 5902 5901 5899 5898 5897 5896 5895 5894 5893 5892 5892 5891 5891 5890 5890 5890 5890 5890 5890 5890 5891
5924 5923 5923 5922 5921 5921 5920 5919 5918 5918 5917 5916 5915 5914 5913 5912 5910 5909 5908 5906 5905 5903 5902 5901 5899 5898 5897 5896 5895 5894 5893 5892 5891 5891 5890 5890 5890 5890 5890 5890 5890 5890 5891
5924 5923 5922 5921 5921 5920 5919 5918 5918 5917 5916 5915 5914 5913 5912 5911 5909 5908 5907 5906 5904 5903 5901 5900 5898 5897 5896 5895 5894 5893 5893 5892 5891 5890 5890 5889 5889 5889 5889 5890 5890 5890 5890
5923 5922 5921 5920 5920 5919 5918 5917 5916 5915 5914 5913 5912 5911 5910 5909 5908 5906 5905 5904 5903 5902 5900 5899 5898 5896 5895 5894 5893 5892 5892 5891 5890 5889 5888 5888 5888 5888 5888 5888 5889 5889 5889
5922 5921 5920 5919 5918 5917 5916 5915 5914 5913 5912 5911 5910 5909 5908 5906 5905 5904 5903 5902 5901 5900 5899 5897 5896 5895 5894 5893 5892 5891 5891 5890 5890 5889 5888 5887 5887 5887 5887 5887 5887 5888 5888
5920 5920 5919 5918 5917 5916 5914 5913 5912 5911 5909 5908 5907 5906 5904 5903 5902 5901 5900 5899 5898 5897 5896 5895 5894 5893 5892 5891 5890 5889 5889 5888 5888 5888 5887 5886 5886 5886 5885 5885 5885 5886 5886
5919 5918 5917 5916 5914 5913 5912 5910 5909 5907 5906 5904 5903 5902 5900 5899 5898 5897 5896 5895 5894 5894 5893 5892 5891 5890 5889 5888 5888 5887 5886 5886 5886 5885 5885 5884 5884 5884 5883 5883 5883 5884 5884
5917 5916 5915 5913 5912 5910 5908 5907 5905 5903 5902 5900 5899 5897 5896 5895 5894 5893 5892 5891 5890 5889 5889 5888 5887 5886 5885 5885 5884 5884 5883 5883 5882 5882 5881 5881 5881 5881 5881 5881 5881 5881 5882
5915 5913 5912 5910 5908 5906 5904 5903 5901 5899 5898 5896 5894 5893 5891 5890 5889 5888 5887 5886 5885 5884 5884 5883 5882 5881 5881 5880 5879 5879 5879 5878 5878 5878 5877 5877 5877 5878 5878 5878 5878 5878 5879
5912 5910 5908 5906 5904 5902 5900 5898 5896 5895 5893 5891 5889 5888 5886 5885 5883 5882 5881 5880 5880 5879 5878 5878 5877 5876 5875 5875 5875 5874 5873 5873 5873 5873 5873 5873 5873 5873 5874 5874 5875 5875 5875
5908 5906 5903 5901 5899 5897 5895 5893 5891 5889 5888 5886 5884 5882 5881 5879 5878 5877 5876 5875 5874 5873 5873 5872 5871 5870 5870 5869 5869 5868 5868 5867 5867 5867 5867 5867 5867 5868 5869 5870 5871 5871 5872
5903 5900 5898 5895 5893 5891 5890 5888 5886 5884 5882 5880 5879 5877 5875 5873 5872 5871 5871 5870 5869 5868 5867 5866 5865 5865 5864 5864 5863 5862 5862 5861 5861 5861 5861 5861 5861 5861 5862 5864 5865 5866 5867
5897 5894 5891 5888 5886 5885 5883 5882 5880 5878 5877 5875 5873 5871 5869 5868 5867 5866 5865 5864 5863 5862 5861 5861 5860 5859 5859 5858 5858 5857 5856 5855 5855 5854 5854 5854 5854 5854 5855 5857 5858 5859 5861
5889 5887 5885 5882 5879 5877 5875 5874 5872 5871 5870 5868 5867 5865 5863 5862 5861 5860 5859 5858 5857 5857 5856 5855 5854 5854 5853 5853 5853 5852 5851 5850 5849 5849 5848 5848 5848 5848 5847 5849 5850 5852 5854
5880 5877 5876 5873 5870 5868 5866 5865 5864 5863 5862 5860 5859 5857 5856 5855 5854 5853 5853 5852 5851 5850 5850 5850 5849 5848 5848 5848 5848 5847 5846 5846 5845 5844 5843 5842 5842 5841 5841 5842 5843 5845 5846
5870 5867 5865 5861 5856 5854 5854 5854 5854 5854 5853 5852 5850 5849 5848 5847 5847 5846 5846 5845 5844 5844 5844 5844 5843 5843 5843 5843 5843 5842 5841 5840 5840 5839 5838 5837 5836 5835 5835 5836 5837 5837 5838
5861 5856 5849 5847 5841 5841 5843 5843 5842 5844 5843 5842 5842 5842 5841 5840 5839 5839 5839 5839 5838 5838 5838 5838 5838 5838 5838 5838 5838 5837 5836 5835 5834 5833 5832 5831 5830 5830 5830 5830 5829 5830 5831
5852 5847 5840 5838 5832 5834 5835 5832 5835 5834 5835 5835 5834 5834 5834 5833 5833 5833 5833 5833 5833 5833 5833 5833 5833 5833 5833 5833 5833 5833 5832 5830 5829 5828 5826 5825 5824 5824 5823 5823 5823 5823 5824
5845 5840 5832 5826 5828 5829 5830 5827 5827 5827 5827 5828 5826 5827 5827 5826 5826 5826 5826 5826 5827 5827 5827 5827 5827 5827 5827 5828 5828 5828 5827 5826 5824 5823 5821 5820 5818 5817 5816 5816 5816 5817 5817
5840 5835 5829 5825 5826 5826 5826 5824 5822 5821 5820 5820 5820 5820 5820 5820 5819 5819 5819 5819 5820 5820 5821 5821 5821 5821 5821 5822 5822 5822 5822 5821 5819 5818 5816 5814 5813 5811 5810 5809 5809 5809 5810
5835 5831 5828 5825 5822 5821 5820 5817 5816 5815 5814 5814 5814 5814 5813 5813 5813 5812 5812 5812 5813 5813 5813 5814 5814 5815 5815 5815 5816 5816 5816 5815 5814 5812 5810 5809 5807 5805 5804 5803 5802 5802 5803
5829 5826 5822 5820 5817 5815 5813 5810 5809 5808 5807 5807 5807 5807 5806 5806 5806 5804 5804 5804 5804 5805 5806 5806 5807 5808 5808 5808 5809 5809 5810 5809 5809 5807 5804 5803 5801 5799 5797 5796 5795 5795 5795
5823 5820 5816 5813 5810 5808 5807 5805 5803 5801 5800 5800 5799 5799 5798 5798 5797 5797 5796 5796 5795 5796 5797 5798 5798 5799 5800 5801 5801 5801 5802 5802 5802 5802 5800 5796 5794 5792 5790 5788 5788 5787 5787
5815 5812 5809 5806 5803 5800 5798 5796 5794 5793 5792 5791 5790 5789 5789 5788 5787 5787 5787 5787 5787 5787 5788 5789 5789 5790 5791 5793 5793 5794 5794 5794 5793 5794 5793 5791 5788 5785 5784 5782 5780 5780 5780